Location: Ash Swamp
(41.5170°N, 74.6157°W)
Time: 02:38:25
(UTC+00:00)

CZ-4B R/B - Pass Details

Date: 14 July 2020
Orbit: 702 x 803 km, 98.9° (Epoch: 14 August)

Event Time Altitude Azimuth Distance (km) Brightness Sun altitude
Rises 07:19:45 0° 10° (N) 3,240 7.9 -19.5°
Reaches altitude 10° 07:22:06 10° 7° (N) 2,294 6.9 -19.3°
Maximum altitude 07:27:05 63° 287° (WNW) 827 3.5 -18.8°
Enters shadow 07:28:58 36° 221° (SW) 1,157 3.9 -18.6°
